sat.trackr.live / text

‹ back to catalog

ONEWEB-0224

NORAD 48794 · 2021-045AD

PAYLOAD ACTIVE UNKNOWN

§ Identity

Operator
Country
UK
Launch date
2021-05-28
Launch site
VOSTO
Launch vehicle
Mass (kg)
RCS (m²)

Purposes: comms

External: N2YO · Heavens-Above · Gunter

§ Orbital elements

Epoch: 2026-05-25T01:04:39.219168Z

Period
109.46 min
Inclination
87.8991°
Eccentricity
0.0001397
Mean motion
13.15549868 rev/d
Perigee alt
1,200.7 km
Apogee alt
1,202.8 km
Semi-major
7,579.9 km
B*
-5.2303e-4
RAAN
263.8386°
Arg perigee
126.1271°
Mean anomaly
233.9989°
Rev number
24,123

§ Raw data

ONEWEB-02241 48794U 21045AD  26145.04489837 -.00000184  00000+0 -52303-3 0  99952 48794  87.8991 263.8386 0001397 126.1271 233.9989 13.15549868241237

JSON: /api/v1/satellites/48794 · /tle

For live sub-satellite position, see the globe view (requires WebGL).

§ Visibility from observer

Set your observer location to see the next 7 days of passes ≥ 10°. The values pass through the URL so the page stays shareable.

No JS? Fill the form by hand. The geolocation button needs JavaScript.